Location: *
(37.5724°S, 58.0067°E)
Time: 08:02:55
(UTC+00:00)

Cosmos 1933 Rocket - Pass Details

Date: 27 January 2021
Orbit: 607 x 630 km, 82.5° (Epoch: 04 March)

Event Time Altitude Azimuth Distance (km) Brightness Sun altitude
Rises 18:22:23 0° 178° (S) 2,959 7.9 -27.6°
Reaches altitude 10° 18:24:48 10° 170° (S) 2,041 6.8 -27.9°
Enters shadow 18:27:24 28° 144° (SE) 1,212 5.2 -28.1°
